Location: *
(49.4547°N, 7.9131°E)
Time: 14:20:26
(UTC+00:00)

Cosmos 1743 - Pass Details

Date: 22 September 2019
Orbit: 512 x 527 km, 82.6° (Epoch: 15 October)

Event Time Altitude Azimuth Distance (km) Brightness Sun altitude
Rises 17:48:58 0° 207° (SSW) 2,636 6.6 -4.4°
Reaches altitude 10° 17:51:11 10° 215° (SW) 1,756 5.8 -4.7°
Maximum altitude 17:54:49 39° 285° (WNW) 801 4.5 -5.3°
Drops below altitude 10° 17:58:30 10° 356° (N) 1,778 5.6 -5.9°
Sets 18:00:46 0° 4° (N) 2,675 6.4 -6.3°
